Location: Anuling
(14.1239°N, 120.8922°E)
Time: 04:54:59
(UTC+00:00)

GPS 2-15 Rocket1 - Pass Details

Date: 14 January 2026
Orbit: 607 x 652 km, 19.8° (Epoch: 11 February)

Event Time Altitude Azimuth Distance (km) Brightness Sun altitude
Rises 10:01:32 0° 276° (W) 2,848 7.8 -4.2°
Reaches altitude 10° 10:04:00 10° 268° (W) 1,941 7.1 -4.7°
Maximum altitude 10:08:13 38° 200° (SSW) 920 4.4 -5.7°
Drops below altitude 10° 10:12:26 10° 131° (SE) 1,938 5.3 -6.7°
Sets 10:14:53 0° 123° (ESE) 2,843 6.1 -7.2°
